| time (UTC) | temp F | wind direction | speed MPH | gust MPH | rain 1hr in | rain 24hr in | rain mn in | humidity % | barometer mb |
| 20260510130206 | 50 | 282 | 1.0 | 6.0 | 0.00 | 0.00 | 0.00 | 55 | |
| 20260510125205 | 49 | 245 | 2.0 | 5.0 | 0.00 | 0.00 | 0.00 | 55 | |
| 20260510124205 | 48 | 257 | 2.0 | 6.0 | 0.00 | 0.00 | 0.00 | 57 | |
| 20260510123210 | 46 | 317 | 1.0 | 3.0 | 0.00 | 0.00 | 0.00 | 59 | |
| 20260510122206 | 45 | 285 | 0.0 | 3.0 | 0.00 | 0.00 | 0.00 | 64 | |
| 20260510121206 | 43 | 332 | 1.0 | 5.0 | 0.00 | 0.00 | 0.00 | 64 | |
| 20260510120206 | 43 | 323 | 3.0 | 9.0 | 0.00 | 0.00 | 0.00 | 65 | |
| 20260510115206 | 44 | 329 | 3.0 | 7.0 | 0.00 | 0.00 | 0.00 | 66 | |
| 20260510114206 | 41 | 249 | 0.0 | 2.0 | 0.00 | 0.00 | 0.00 | 69 | |
| 20260510113205 | 39 | 233 | 0.0 | 1.0 | 0.00 | 0.00 | 0.00 | 75 | |
| 20260510112206 | 38 | 266 | 0.0 | 0.0 | 0.00 | 0.00 | 0.00 | 76 | |
| 20260510111206 | 38 | 266 | 0.0 | 0.0 | 0.00 | 0.00 | 0.00 | 75 | |
| 20260510110206 | 38 | 266 | 0.0 | 0.0 | 0.00 | 0.00 | 0.00 | 74 | |
| 20260510105206 | 39 | 266 | 0.0 | 0.0 | 0.00 | 0.00 | 0.00 | 71 | |
| 20260510103205 | 40 | 266 | 0.0 | 0.0 | 0.00 | 0.00 | 0.00 | 69 | |
| 20260510102206 | 40 | 266 | 0.0 | 0.0 | 0.00 | 0.00 | 0.00 | 70 | |
| 20260510101205 | 41 | 266 | 0.0 | 1.0 | 0.00 | 0.00 | 0.00 | 69 | |
| 20260510100206 | 41 | 291 | 0.0 | 2.0 | 0.00 | 0.00 | 0.00 | 69 | |
| 20260510095206 | 41 | 337 | 2.0 | 2.0 | 0.00 | 0.00 | 0.00 | 68 | |
| 20260510093206 | 40 | 0 | 0.0 | 1.0 | 0.00 | 0.00 | 0.00 | 66 | |
| 20260510092206 | 39 | 314 | 0.0 | 0.0 | 0.00 | 0.00 | 0.00 | 68 | |
| 20260510091206 | 40 | 314 | 0.0 | 0.0 | 0.00 | 0.00 | 0.00 | 67 | |
| 20260510085206 | 41 | 314 | 0.0 | 0.0 | 0.00 | 0.00 | 0.00 | 64 | |
| 20260510084206 | 41 | 314 | 0.0 | 0.0 | 0.00 | 0.00 | 0.00 | 62 | |
| 20260510083209 | 41 | 314 | 0.0 | 0.0 | 0.00 | 0.00 | 0.00 | 63 | |
| 20260510082206 | 41 | 314 | 0.0 | 0.0 | 0.00 | 0.00 | 0.00 | 64 | |
| 20260510081206 | 42 | 314 | 0.0 | 0.0 | 0.00 | 0.00 | 0.00 | 61 | |
| 20260510075206 | 43 | 314 | 0.0 | 0.0 | 0.00 | 0.00 | 0.00 | 58 | |
| 20260510074205 | 44 | 314 | 0.0 | 0.0 | 0.00 | 0.00 | 0.00 | 58 | |
| 20260510073206 | 44 | 314 | 0.0 | 0.0 | 0.00 | 0.00 | 0.00 | 56 | |
| 20260510072206 | 44 | 314 | 0.0 | 0.0 | 0.00 | 0.00 | 0.00 | 56 | |
| 20260510071206 | 45 | 314 | 0.0 | 1.0 | 0.00 | 0.00 | 0.00 | 55 | |
| 20260510070205 | 45 | 243 | 0.0 | 0.0 | 0.00 | 0.00 | 0.00 | 56 | |
| 20260510065206 | 45 | 243 | 0.0 | 0.0 | 0.00 | 0.00 | 0.00 | 54 | |
| 20260510064206 | 46 | 243 | 0.0 | 0.0 | 0.00 | 0.00 | 0.00 | 53 | |
| 20260510063206 | 46 | 243 | 0.0 | 1.0 | 0.00 | 0.00 | 0.00 | 52 | |
| 20260510062206 | 46 | 288 | 0.0 | 1.0 | 0.00 | 0.00 | 0.00 | 52 | |
| 20260510061206 | 46 | 304 | 0.0 | 1.0 | 0.00 | 0.00 | 0.00 | 53 | |
| 20260510060206 | 47 | 304 | 0.0 | 1.0 | 0.00 | 0.00 | 0.00 | 53 | |
| 20260510055206 | 47 | 353 | 1.0 | 5.0 | 0.00 | 0.00 | 0.00 | 52 | |
| 20260510054206 | 47 | 8 | 1.0 | 3.0 | 0.00 | 0.00 | 0.00 | 52 | |
| 20260510053205 | 48 | 333 | 0.0 | 2.0 | 0.00 | 0.00 | 0.00 | 49 | |
| 20260510052206 | 49 | 333 | 0.0 | 2.0 | 0.00 | 0.00 | 0.00 | 47 | |
| 20260510050206 | 50 | 330 | 1.0 | 5.0 | 0.00 | 0.00 | 0.00 | 46 | |
| 20260510045206 | 50 | 341 | 1.0 | 3.0 | 0.00 | 0.00 | 0.00 | 46 | |
| 20260510044206 | 50 | 335 | 2.0 | 3.0 | 0.00 | 0.00 | 0.00 | 44 | |
| 20260510042206 | 51 | 315 | 2.0 | 6.0 | 0.00 | 0.00 | 0.00 | 43 | |
| 20260510041206 | 51 | 328 | 2.0 | 5.0 | 0.00 | 0.00 | 0.00 | 43 | |
| 20260510040205 | 51 | 318 | 1.0 | 2.0 | 0.00 | 0.00 | 0.00 | 43 | |
| 20260510035206 | 52 | 304 | 0.0 | 2.0 | 0.00 | 0.00 | 0.00 | 42 | |
| 20260510034206 | 52 | 301 | 1.0 | 2.0 | 0.00 | 0.00 | 0.00 | 41 | |
| 20260510032205 | 53 | 311 | 2.0 | 5.0 | 0.00 | 0.00 | 0.00 | 40 | |
| 20260510031206 | 53 | 352 | 1.0 | 3.0 | 0.00 | 0.00 | 0.00 | 40 | |
| 20260510030205 | 53 | 338 | 2.0 | 3.0 | 0.00 | 0.00 | 0.00 | 40 | |
| 20260510025206 | 53 | 337 | 1.0 | 2.0 | 0.00 | 0.00 | 0.00 | 40 | |
| 20260510024206 | 54 | 325 | 0.0 | 1.0 | 0.00 | 0.00 | 0.00 | 41 | |
| 20260510022206 | 55 | 344 | 1.0 | 5.0 | 0.00 | 0.00 | 0.00 | 38 | |
| 20260510021206 | 56 | 353 | 2.0 | 5.0 | 0.00 | 0.00 | 0.00 | 37 | |
| 20260510020205 | 56 | 19 | 1.0 | 6.0 | 0.00 | 0.00 | 0.00 | 37 | |
| 20260510015206 | 57 | 326 | 2.0 | 5.0 | 0.00 | 0.00 | 0.00 | 36 | |
| 20260510014206 | 57 | 332 | 1.0 | 8.0 | 0.00 | 0.00 | 0.00 | 36 | |
| 20260510013206 | 58 | 268 | 3.0 | 7.0 | 0.00 | 0.00 | 0.00 | 35 | |
| 20260510012206 | 59 | 347 | 3.0 | 7.0 | 0.00 | 0.00 | 0.00 | 35 | |
| 20260510011205 | 59 | 9 | 2.0 | 7.0 | 0.00 | 0.00 | 0.00 | 34 | |
| 20260510010206 | 60 | 322 | 3.0 | 8.0 | 0.00 | 0.00 | 0.00 | 33 | |
| 20260510004205 | 60 | 3 | 5.0 | 12.0 | 0.00 | 0.00 | 0.00 | 32 | |
| 20260510003209 | 61 | 112 | 3.0 | 9.0 | 0.00 | 0.00 | 0.00 | 32 | |
| 20260510002206 | 62 | 337 | 5.0 | 10.0 | 0.00 | 0.00 | 0.00 | 32 | |
| 20260510001206 | 62 | 8 | 4.0 | 10.0 | 0.00 | 0.00 | 0.00 | 33 | |
| 20260510000206 | 62 | 5 | 6.0 | 14.0 | 0.00 | 0.00 | 0.00 | 32 | |
| 20260509235206 | 63 | 4 | 6.0 | 17.0 | 0.00 | 0.00 | 0.00 | 32 | |
| 20260509234206 | 62 | 349 | 6.0 | 12.0 | 0.00 | 0.00 | 0.00 | 33 | |
| 20260509233206 | 62 | 3 | 5.0 | 14.0 | 0.00 | 0.00 | 0.00 | 34 | |
| 20260509232206 | 63 | 6 | 7.0 | 13.0 | 0.00 | 0.00 | 0.00 | 35 | |
| 20260509231206 | 62 | 4 | 6.0 | 17.0 | 0.00 | 0.00 | 0.00 | 35 | |
| 20260509230205 | 62 | 337 | 5.0 | 13.0 | 0.00 | 0.00 | 0.00 | 37 | |
| 20260509225206 | 64 | 22 | 4.0 | 13.0 | 0.00 | 0.00 | 0.00 | 36 | |
| 20260509224206 | 64 | 12 | 6.0 | 18.0 | 0.00 | 0.00 | 0.00 | 36 | |
| 20260509223205 | 63 | 342 | 7.0 | 15.0 | 0.00 | 0.00 | 0.00 | 37 | |
| 20260509222213 | 64 | 16 | 4.0 | 14.0 | 0.00 | 0.00 | 0.00 | 36 | |
| 20260509221206 | 64 | 12 | 7.0 | 13.0 | 0.00 | 0.00 | 0.00 | 35 | |
| 20260509220206 | 65 | 6 | 6.0 | 14.0 | 0.00 | 0.00 | 0.00 | 35 | |
| 20260509215206 | 65 | 337 | 5.0 | 15.0 | 0.00 | 0.00 | 0.00 | 35 | |
| 20260509213205 | 65 | 342 | 6.0 | 17.0 | 0.00 | 0.00 | 0.00 | 36 | |
| 20260509212206 | 65 | 338 | 4.0 | 18.0 | 0.00 | 0.00 | 0.00 | 37 | |
| 20260509211206 | 64 | 24 | 6.0 | 16.0 | 0.00 | 0.00 | 0.00 | 38 | |
| 20260509210206 | 65 | 351 | 7.0 | 16.0 | 0.00 | 0.00 | 0.00 | 38 | |
| 20260509205206 | 64 | 7 | 6.0 | 15.0 | 0.00 | 0.00 | 0.00 | 37 | |
| 20260509204205 | 66 | 345 | 6.0 | 14.0 | 0.00 | 0.00 | 0.00 | 35 | |
| 20260509203210 | 67 | 330 | 6.0 | 18.0 | 0.00 | 0.00 | 0.00 | 36 | |
| 20260509202205 | 66 | 286 | 6.0 | 15.0 | 0.00 | 0.00 | 0.00 | 36 | |
| 20260509201206 | 66 | 351 | 7.0 | 15.0 | 0.00 | 0.00 | 0.00 | 36 | |
| 20260509200205 | 65 | 328 | 7.0 | 21.0 | 0.00 | 0.00 | 0.00 | 36 | |
| 20260509195206 | 67 | 337 | 7.0 | 16.0 | 0.00 | 0.00 | 0.00 | 34 | |
| 20260509194206 | 67 | 341 | 6.0 | 17.0 | 0.00 | 0.00 | 0.00 | 34 | |
| 20260509193205 | 66 | 320 | 7.0 | 18.0 | 0.00 | 0.00 | 0.00 | 35 | |
| 20260509192205 | 66 | 358 | 6.0 | 20.0 | 0.00 | 0.00 | 0.00 | 38 | |
| 20260509191206 | 65 | 322 | 9.0 | 22.0 | 0.00 | 0.00 | 0.00 | 37 | |
| 20260509190206 | 66 | 354 | 5.0 | 21.0 | 0.00 | 0.00 | 0.00 | 39 | |
| 20260509185205 | 66 | 286 | 8.0 | 18.0 | 0.00 | 0.00 | 0.00 | 38 | |
| 20260509184206 | 66 | 334 | 7.0 | 21.0 | 0.00 | 0.00 | 0.00 | 38 | |
| 20260509183205 | 65 | 317 | 9.0 | 23.0 | 0.00 | 0.00 | 0.00 | 38 | |
| 20260509182206 | 67 | 353 | 7.0 | 20.0 | 0.00 | 0.00 | 0.00 | 34 | |
| 20260509181206 | 67 | 311 | 7.0 | 18.0 | 0.00 | 0.00 | 0.00 | 36 | |
| 20260509180206 | 66 | 315 | 9.0 | 25.0 | 0.00 | 0.00 | 0.00 | 36 | |
| 20260509175206 | 65 | 323 | 12.0 | 22.0 | 0.00 | 0.00 | 0.00 | 37 | |
| 20260509174205 | 66 | 12 | 12.0 | 24.0 | 0.00 | 0.00 | 0.00 | 39 | |
| 20260509173206 | 65 | 321 | 8.0 | 24.0 | 0.00 | 0.00 | 0.00 | 40 | |
| 20260509172205 | 65 | 350 | 8.0 | 22.0 | 0.00 | 0.00 | 0.00 | 41 | |
| 20260509171206 | 65 | 343 | 9.0 | 25.0 | 0.00 | 0.00 | 0.00 | 41 | |
| 20260509165206 | 63 | 305 | 10.0 | 23.0 | 0.00 | 0.00 | 0.00 | 41 | |
| 20260509164206 | 63 | 301 | 7.0 | 15.0 | 0.00 | 0.00 | 0.00 | 40 | |
| 20260509163209 | 63 | 325 | 9.0 | 16.0 | 0.00 | 0.00 | 0.00 | 38 | |
| 20260509161205 | 62 | 324 | 7.0 | 21.0 | 0.00 | 0.00 | 0.00 | 39 | |
| 20260509160206 | 62 | 263 | 5.0 | 12.0 | 0.00 | 0.00 | 0.00 | 40 | |
| 20260509155206 | 61 | 302 | 6.0 | 14.0 | 0.00 | 0.00 | 0.00 | 40 | |
| 20260509154205 | 61 | 280 | 4.0 | 9.0 | 0.00 | 0.00 | 0.00 | 40 | |
| 20260509153206 | 61 | 264 | 3.0 | 7.0 | 0.00 | 0.00 | 0.00 | 40 | |
| 20260509152206 | 60 | 286 | 4.0 | 7.0 | 0.00 | 0.00 | 0.00 | 41 | |
| 20260509151205 | 60 | 286 | 5.0 | 9.0 | 0.00 | 0.00 | 0.00 | 41 | |
| 20260509150206 | 60 | 305 | 2.0 | 10.0 | 0.00 | 0.00 | 0.00 | 42 | |
| 20260509145206 | 60 | 304 | 5.0 | 10.0 | 0.00 | 0.00 | 0.00 | 41 | |
| 20260509144205 | 60 | 335 | 5.0 | 15.0 | 0.00 | 0.00 | 0.00 | 40 | |
| 20260509143205 | 60 | 323 | 5.0 | 12.0 | 0.00 | 0.00 | 0.00 | 40 | |
| 20260509142205 | 60 | 326 | 3.0 | 10.0 | 0.00 | 0.00 | 0.00 | 42 | |
| 20260509140205 | 59 | 355 | 5.0 | 9.0 | 0.00 | 0.00 | 0.00 | 45 | |
| 20260509135206 | 59 | 248 | 3.0 | 8.0 | 0.00 | 0.00 | 0.00 | 47 | |
| 20260509134205 | 59 | 239 | 2.0 | 7.0 | 0.00 | 0.00 | 0.00 | 48 | |
| 20260509132205 | 58 | 242 | 1.0 | 7.0 | 0.00 | 0.00 | 0.00 | 54 | |
| 20260509131206 | 58 | 257 | 2.0 | 5.0 | 0.00 | 0.00 | 0.00 | 51 |